Private Wetterstation Wechselburg
Wetterdaten: Freitag, 28.06.2019
Datum Zeit Temp. +2m Bodentemp. Temp.+5cm Temp. Wind Windchill X Diff Temp. Feuchte +2m Feuchte +5cm Luftdruck Regen Wind Richtung Richtung Sonnenschein Taupunkt Windchill Windben
28.06.2019 00:00 18,1 C 20,8 C 18,1 C 17,7 C 16,9 C 0,0 C 63 % 61 % 1024,6 hPa 0,0 l/m 2,7 km/h (1 Bft) SO 135 0 min 10,9 C 16,9 C 3,7 km/h (1 Bft)
28.06.2019 00:05 18,0 C 20,8 C 18,0 C 17,6 C 16,8 C 0,0 C 63 % 61 % 1024,6 hPa 0,0 l/m 3,1 km/h (1 Bft) SW 225 0 min 10,8 C 16,8 C 4,0 km/h (1 Bft)
28.06.2019 00:11 18,0 C 20,8 C 17,9 C 17,6 C 16,7 C 0,0 C 63 % 62 % 1024,6 hPa 0,0 l/m 1,9 km/h (1 Bft) N 0 0 min 10,8 C 16,7 C 2,7 km/h (1 Bft)
28.06.2019 00:24 17,6 C 20,7 C 17,6 C 17,2 C 16,3 C 0,0 C 64 % 63 % 1025,0 hPa 0,0 l/m 1,1 km/h (1 Bft) S-SO 157 0 min 10,7 C 16,3 C 6,0 km/h (2 Bft)
28.06.2019 00:25 17,6 C 20,7 C 17,6 C 17,2 C 16,3 C 0,0 C 64 % 63 % 1025,0 hPa 0,0 l/m 1,1 km/h (1 Bft) S-SO 157 0 min 10,7 C 16,3 C 2,1 km/h (1 Bft)
28.06.2019 00:40 17,2 C 20,7 C 17,3 C 16,7 C 15,6 C 0,0 C 65 % 64 % 1025,0 hPa 0,0 l/m 1,0 km/h (0 Bft) S 180 0 min 10,6 C 15,6 C 2,9 km/h (1 Bft)
28.06.2019 00:45 17,0 C 20,7 C 17,2 C 16,5 C 15,5 C 0,0 C 66 % 64 % 1025,6 hPa 0,0 l/m 1,1 km/h (1 Bft) S 180 0 min 10,6 C 15,5 C 2,4 km/h (1 Bft)
28.06.2019 00:50 17,0 C 20,6 C 17,1 C 16,5 C 15,4 C 0,0 C 66 % 65 % 1025,6 hPa 0,0 l/m 1,6 km/h (1 Bft) S-SW 202 0 min 10,6 C 15,4 C 2,4 km/h (1 Bft)
28.06.2019 00:55 16,9 C 20,6 C 17,0 C 16,4 C 15,4 C 0,0 C 67 % 65 % 1025,6 hPa 0,0 l/m 1,3 km/h (1 Bft) SO 135 0 min 10,7 C 15,4 C 0,0 km/h (0 Bft)
28.06.2019 01:00 16,7 C 20,6 C 16,9 C 16,2 C 15,3 C 0,0 C 67 % 65 % 1025,6 hPa 0,0 l/m 1,0 km/h (0 Bft) O-NO 67 0 min 10,5 C 15,3 C 0,0 km/h (0 Bft)
28.06.2019 01:05 16,7 C 20,6 C 16,8 C 16,2 C 15,2 C 0,0 C 68 % 66 % 1025,0 hPa 0,0 l/m 1,0 km/h (0 Bft) SW 225 0 min 10,8 C 15,2 C 8,9 km/h (2 Bft)
28.06.2019 01:10 16,5 C 20,6 C 16,7 C 16,0 C 15,1 C 0,0 C 68 % 66 % 1025,0 hPa 0,0 l/m 1,3 km/h (1 Bft) W 270 0 min 10,6 C 15,1 C 5,0 km/h (1 Bft)
28.06.2019 01:15 16,5 C 20,6 C 16,6 C 16,0 C 15,0 C 0,0 C 68 % 66 % 1025,0 hPa 0,0 l/m 1,1 km/h (1 Bft) S 180 0 min 10,6 C 15,0 C 1,6 km/h (1 Bft)
28.06.2019 01:20 16,3 C 20,6 C 16,5 C 15,8 C 14,9 C 0,0 C 68 % 67 % 1025,0 hPa 0,0 l/m 0,3 km/h (0 Bft) S-SO 157 0 min 10,4 C 14,9 C 0,0 km/h (0 Bft)
28.06.2019 01:25 16,3 C 20,5 C 16,5 C 15,8 C 14,8 C 0,0 C 69 % 67 % 1025,6 hPa 0,0 l/m 0,6 km/h (0 Bft) S 180 0 min 10,6 C 14,8 C 0,0 km/h (0 Bft)
28.06.2019 01:30 16,1 C 20,6 C 16,4 C 15,6 C 14,7 C 0,0 C 69 % 67 % 1025,6 hPa 0,0 l/m 0,8 km/h (0 Bft) S-SW 202 0 min 10,4 C 14,7 C 0,0 km/h (0 Bft)
28.06.2019 01:35 16,1 C 20,6 C 16,3 C 15,5 C 14,4 C 0,0 C 69 % 68 % 1025,6 hPa 0,0 l/m 0,3 km/h (0 Bft) S-SO 157 0 min 10,4 C 14,4 C 1,6 km/h (1 Bft)
28.06.2019 01:40 15,9 C 20,6 C 16,1 C 15,4 C 14,4 C 0,0 C 70 % 68 % 1025,6 hPa 0,0 l/m 0,5 km/h (0 Bft) S-SO 157 0 min 10,4 C 14,4 C 0,0 km/h (0 Bft)
28.06.2019 01:45 15,8 C 20,6 C 16,0 C 15,3 C 14,2 C 0,0 C 70 % 68 % 1025,2 hPa 0,0 l/m 0,3 km/h (0 Bft) SO 135 0 min 10,3 C 14,2 C 0,0 km/h (0 Bft)
28.06.2019 01:50 15,7 C 20,6 C 16,0 C 15,2 C 14,1 C 0,0 C 70 % 69 % 1025,2 hPa 0,0 l/m 0,6 km/h (0 Bft) NW 315 0 min 10,2 C 14,1 C 5,0 km/h (1 Bft)
28.06.2019 01:55 15,6 C 20,6 C 15,8 C 15,1 C 14,0 C 0,0 C 71 % 69 % 1025,2 hPa 0,0 l/m 0,8 km/h (0 Bft) S-SO 157 0 min 10,4 C 14,0 C 0,0 km/h (0 Bft)
28.06.2019 02:00 15,4 C 20,5 C 15,8 C 14,9 C 13,9 C 0,0 C 71 % 69 % 1025,2 hPa 0,0 l/m 0,6 km/h (0 Bft) SW 225 0 min 10,2 C 13,9 C 0,0 km/h (0 Bft)
28.06.2019 02:05 15,3 C 20,5 C 15,7 C 14,8 C 13,7 C 0,0 C 71 % 70 % 1025,2 hPa 0,0 l/m 0,2 km/h (0 Bft) S 180 0 min 10,1 C 13,7 C 0,0 km/h (0 Bft)
28.06.2019 02:11 15,2 C 20,5 C 15,7 C 14,7 C 13,7 C 0,0 C 72 % 70 % 1025,2 hPa 0,0 l/m 0,5 km/h (0 Bft) N 0 0 min 10,2 C 13,7 C 2,6 km/h (1 Bft)
28.06.2019 02:24 15,1 C 20,5 C 15,4 C 14,6 C 13,5 C 0,0 C 73 % 70 % 1025,1 hPa 0,0 l/m 0,3 km/h (0 Bft) O-SO 112 0 min 10,3 C 13,5 C 0,0 km/h (0 Bft)
28.06.2019 02:35 14,9 C 20,4 C 15,1 C 14,3 C 13,2 C 0,0 C 73 % 71 % 1025,1 hPa 0,0 l/m 0,0 km/h (0 Bft) SO 135 0 min 10,1 C 13,2 C 0,0 km/h (0 Bft)
28.06.2019 02:40 14,7 C 20,4 C 15,0 C 14,2 C 13,1 C 0,0 C 73 % 71 % 1025,1 hPa 0,0 l/m 0,0 km/h (0 Bft) SO 135 0 min 9,9 C 13,1 C 0,0 km/h (0 Bft)
28.06.2019 02:45 14,6 C 20,4 C 14,8 C 14,0 C 12,8 C 0,0 C 73 % 72 % 1025,0 hPa 0,0 l/m 0,0 km/h (0 Bft) N-NW 337 0 min 9,8 C 12,8 C 0,0 km/h (0 Bft)
28.06.2019 02:50 14,5 C 20,4 C 14,7 C 13,9 C 12,6 C 0,0 C 73 % 72 % 1025,0 hPa 0,0 l/m 0,0 km/h (0 Bft) NW 315 0 min 9,7 C 12,6 C 0,0 km/h (0 Bft)
28.06.2019 02:55 14,3 C 20,4 C 14,5 C 13,7 C 12,5 C 0,0 C 74 % 73 % 1025,0 hPa 0,0 l/m 0,0 km/h (0 Bft) O-NO 67 0 min 9,7 C 12,5 C 0,0 km/h (0 Bft)
28.06.2019 03:00 14,2 C 20,4 C 14,4 C 13,6 C 12,4 C 0,0 C 74 % 74 % 1025,0 hPa 0,0 l/m 0,0 km/h (0 Bft) NW 315 0 min 9,6 C 12,4 C 0,0 km/h (0 Bft)
28.06.2019 03:05 14,3 C 20,3 C 14,5 C 13,6 C 12,3 C 0,0 C 74 % 74 % 1025,0 hPa 0,0 l/m 0,3 km/h (0 Bft) S 180 0 min 9,7 C 12,3 C 0,0 km/h (0 Bft)
28.06.2019 03:10 14,1 C 20,3 C 14,4 C 13,6 C 12,5 C 0,0 C 74 % 73 % 1025,0 hPa 0,0 l/m 0,6 km/h (0 Bft) W 270 0 min 9,5 C 12,5 C 0,0 km/h (0 Bft)
28.06.2019 03:15 14,0 C 20,3 C 14,4 C 13,5 C 12,4 C 0,0 C 75 % 74 % 1025,0 hPa 0,0 l/m 0,3 km/h (0 Bft) SO 135 0 min 9,6 C 12,4 C 0,0 km/h (0 Bft)
28.06.2019 03:20 14,0 C 20,3 C 14,3 C 13,5 C 12,5 C 0,0 C 75 % 73 % 1025,0 hPa 0,0 l/m 0,2 km/h (0 Bft) W-NW 292 0 min 9,6 C 12,5 C 0,0 km/h (0 Bft)
28.06.2019 03:25 13,9 C 20,3 C 14,3 C 13,4 C 12,5 C 0,0 C 75 % 73 % 1024,9 hPa 0,0 l/m 0,2 km/h (0 Bft) O-NO 67 0 min 9,5 C 12,5 C 0,0 km/h (0 Bft)
28.06.2019 03:30 13,9 C 20,3 C 14,3 C 13,4 C 12,3 C 0,0 C 75 % 74 % 1024,9 hPa 0,0 l/m 0,0 km/h (0 Bft) SO 135 0 min 9,5 C 12,3 C 0,0 km/h (0 Bft)
28.06.2019 03:35 13,9 C 20,2 C 14,1 C 13,4 C 12,3 C 0,0 C 75 % 74 % 1024,9 hPa 0,0 l/m 0,0 km/h (0 Bft) S-SO 157 0 min 9,5 C 12,3 C 0,0 km/h (0 Bft)
28.06.2019 03:40 13,7 C 20,2 C 14,0 C 13,2 C 12,1 C 0,0 C 75 % 74 % 1024,9 hPa 0,0 l/m 0,0 km/h (0 Bft) S-SO 157 0 min 9,3 C 12,1 C 0,0 km/h (0 Bft)
28.06.2019 03:45 13,6 C 20,2 C 14,0 C 13,1 C 12,1 C 0,0 C 76 % 74 % 1024,9 hPa 0,0 l/m 0,0 km/h (0 Bft) S-SO 157 0 min 9,4 C 12,1 C 0,0 km/h (0 Bft)
28.06.2019 03:50 13,6 C 20,2 C 14,1 C 13,2 C 12,3 C 0,0 C 76 % 75 % 1024,9 hPa 0,0 l/m 0,0 km/h (0 Bft) S-SO 157 0 min 9,4 C 12,3 C 0,0 km/h (0 Bft)
28.06.2019 03:55 13,6 C 20,2 C 14,2 C 13,3 C 12,6 C 0,0 C 76 % 74 % 1024,9 hPa 0,0 l/m 0,0 km/h (0 Bft) S 180 0 min 9,4 C 12,6 C 0,0 km/h (0 Bft)
28.06.2019 04:00 13,7 C 20,2 C 14,2 C 13,4 C 12,7 C 0,0 C 76 % 74 % 1024,9 hPa 0,0 l/m 0,0 km/h (0 Bft) S-SW 202 0 min 9,5 C 12,7 C 0,0 km/h (0 Bft)
28.06.2019 04:05 13,7 C 20,2 C 14,2 C 13,4 C 12,9 C 0,0 C 77 % 74 % 1025,0 hPa 0,0 l/m 0,0 km/h (0 Bft) S-SW 202 0 min 9,7 C 12,9 C 0,0 km/h (0 Bft)
28.06.2019 04:11 13,7 C 20,1 C 14,1 C 13,4 C 12,9 C 0,0 C 77 % 75 % 1025,0 hPa 0,0 l/m 0,0 km/h (0 Bft) N 0 0 min 9,7 C 12,9 C 0,0 km/h (0 Bft)
28.06.2019 04:24 13,5 C 20,2 C 14,0 C 13,2 C 12,7 C 0,0 C 77 % 75 % 1025,2 hPa 0,0 l/m 0,0 km/h (0 Bft) S-SW 202 0 min 9,5 C 12,7 C 0,0 km/h (0 Bft)
28.06.2019 04:25 13,5 C 20,2 C 14,0 C 13,2 C 12,7 C 0,0 C 77 % 75 % 1025,2 hPa 0,0 l/m 0,0 km/h (0 Bft) S-SW 202 0 min 9,5 C 12,7 C 0,0 km/h (0 Bft)
28.06.2019 04:35 13,5 C 20,2 C 13,9 C 13,1 C 12,4 C 0,0 C 78 % 75 % 1025,2 hPa 0,0 l/m 0,0 km/h (0 Bft) SO 135 0 min 9,7 C 12,4 C 0,0 km/h (0 Bft)
28.06.2019 04:40 13,4 C 20,1 C 13,9 C 13,0 C 12,3 C 0,0 C 78 % 76 % 1025,2 hPa 0,0 l/m 0,0 km/h (0 Bft) S 180 0 min 9,6 C 12,3 C 0,0 km/h (0 Bft)
28.06.2019 04:45 13,3 C 20,1 C 13,8 C 12,9 C 12,1 C 0,0 C 78 % 76 % 1025,4 hPa 0,0 l/m 0,0 km/h (0 Bft) SW 225 0 min 9,5 C 12,1 C 0,0 km/h (0 Bft)
28.06.2019 04:50 13,2 C 20,1 C 13,8 C 12,8 C 12,1 C 0,0 C 78 % 76 % 1025,4 hPa 0,0 l/m 0,2 km/h (0 Bft) S-SO 157 0 min 9,4 C 12,1 C 0,0 km/h (0 Bft)
28.06.2019 04:55 13,2 C 20,1 C 13,8 C 12,8 C 12,0 C 0,0 C 78 % 76 % 1025,4 hPa 0,0 l/m 0,2 km/h (0 Bft) W-SW 247 0 min 9,4 C 12,0 C 0,0 km/h (0 Bft)
28.06.2019 05:00 13,3 C 20,1 C 13,7 C 12,9 C 12,0 C 0,0 C 78 % 76 % 1025,4 hPa 0,0 l/m 0,0 km/h (0 Bft) S-SW 202 0 min 9,5 C 12,0 C 0,0 km/h (0 Bft)
28.06.2019 05:05 13,2 C 20,1 C 13,7 C 12,8 C 11,9 C 0,0 C 78 % 77 % 1025,3 hPa 0,0 l/m 0,0 km/h (0 Bft) S-SO 157 0 min 9,4 C 11,9 C 0,0 km/h (0 Bft)
28.06.2019 05:10 13,2 C 20,1 C 13,6 C 12,7 C 11,8 C 0,0 C 78 % 77 % 1025,3 hPa 0,0 l/m 0,0 km/h (0 Bft) W 270 0 min 9,4 C 11,8 C 0,0 km/h (0 Bft)
28.06.2019 05:15 13,1 C 20,1 C 13,6 C 12,6 C 11,7 C 0,0 C 79 % 78 % 1025,3 hPa 0,0 l/m 0,0 km/h (0 Bft) S 180 0 min 9,5 C 11,7 C 0,0 km/h (0 Bft)
28.06.2019 05:20 13,1 C 20,1 C 13,6 C 12,6 C 11,7 C 0,0 C 79 % 78 % 1025,3 hPa 0,0 l/m 0,0 km/h (0 Bft) SW 225 0 min 9,5 C 11,7 C 0,0 km/h (0 Bft)
28.06.2019 05:25 13,1 C 20,0 C 13,5 C 12,7 C 11,8 C 0,0 C 79 % 78 % 1025,4 hPa 0,0 l/m 0,0 km/h (0 Bft) SO 135 0 min 9,5 C 11,8 C 0,0 km/h (0 Bft)
28.06.2019 05:30 13,0 C 20,0 C 13,5 C 12,6 C 11,8 C 0,0 C 79 % 78 % 1025,4 hPa 0,0 l/m 0,0 km/h (0 Bft) SO 135 0 min 9,4 C 11,8 C 0,0 km/h (0 Bft)
28.06.2019 05:35 13,1 C 20,0 C 13,5 C 12,7 C 11,9 C 0,0 C 80 % 78 % 1025,4 hPa 0,0 l/m 0,0 km/h (0 Bft) S 180 0 min 9,7 C 11,9 C 0,0 km/h (0 Bft)
28.06.2019 05:40 13,1 C 20,0 C 13,6 C 12,8 C 12,1 C 0,0 C 80 % 78 % 1025,4 hPa 0,0 l/m 0,0 km/h (0 Bft) S 180 0 min 9,7 C 12,1 C 0,0 km/h (0 Bft)
28.06.2019 05:45 13,1 C 20,0 C 13,7 C 12,8 C 12,3 C 0,0 C 80 % 77 % 1025,7 hPa 0,0 l/m 0,0 km/h (0 Bft) S-SW 202 0 min 9,7 C 12,3 C 0,0 km/h (0 Bft)
28.06.2019 05:50 13,1 C 20,0 C 13,8 C 12,9 C 12,5 C 0,0 C 80 % 77 % 1025,7 hPa 0,0 l/m 0,0 km/h (0 Bft) S 180 0 min 9,7 C 12,5 C 0,0 km/h (0 Bft)
28.06.2019 05:55 13,1 C 19,9 C 13,8 C 13,0 C 12,7 C 0,0 C 80 % 77 % 1025,7 hPa 0,0 l/m 0,0 km/h (0 Bft) W 270 0 min 9,7 C 12,7 C 0,0 km/h (0 Bft)
28.06.2019 06:00 13,1 C 19,9 C 13,9 C 13,0 C 12,9 C 0,0 C 80 % 77 % 1025,7 hPa 0,0 l/m 0,0 km/h (0 Bft) S 180 0 min 9,7 C 12,9 C 0,0 km/h (0 Bft)
28.06.2019 06:05 13,1 C 19,9 C 13,9 C 13,0 C 12,9 C 0,0 C 80 % 77 % 1025,8 hPa 0,0 l/m 0,0 km/h (0 Bft) S-SO 157 0 min 9,7 C 12,9 C 0,0 km/h (0 Bft)
28.06.2019 06:11 13,2 C 19,9 C 13,9 C 13,2 C 13,2 C 0,0 C 80 % 76 % 1025,8 hPa 0,0 l/m 0,0 km/h (0 Bft) N 0 0 min 9,8 C 13,2 C 0,0 km/h (0 Bft)
28.06.2019 06:24 13,3 C 19,8 C 14,2 C 13,7 C 13,7 C 0,4 C 80 % 77 % 1026,1 hPa 0,0 l/m 0,2 km/h (0 Bft) S-SW 202 0 min 9,9 C 13,7 C 0,0 km/h (0 Bft)
28.06.2019 06:35 13,4 C 19,8 C 14,5 C 14,2 C 14,2 C 0,8 C 80 % 75 % 1026,1 hPa 0,0 l/m 0,0 km/h (0 Bft) S 180 0 min 10,0 C 14,2 C 0,0 km/h (0 Bft)
28.06.2019 06:40 13,5 C 19,8 C 14,5 C 14,4 C 14,4 C 0,9 C 80 % 75 % 1026,1 hPa 0,0 l/m 0,0 km/h (0 Bft) W-SW 247 0 min 10,1 C 14,4 C 0,0 km/h (0 Bft)
28.06.2019 06:45 13,6 C 19,8 C 14,5 C 14,5 C 14,5 C 0,9 C 79 % 75 % 1026,1 hPa 0,0 l/m 0,2 km/h (0 Bft) SO 135 0 min 10,0 C 14,5 C 0,0 km/h (0 Bft)
28.06.2019 06:50 13,6 C 19,8 C 14,5 C 14,6 C 14,6 C 1,0 C 79 % 75 % 1026,1 hPa 0,0 l/m 0,2 km/h (0 Bft) N-NW 337 0 min 10,0 C 14,6 C 0,0 km/h (0 Bft)
28.06.2019 06:55 13,8 C 19,8 C 14,7 C 14,8 C 14,8 C 1,0 C 79 % 74 % 1026,1 hPa 0,0 l/m 0,2 km/h (0 Bft) N-NW 337 0 min 10,2 C 14,8 C 3,1 km/h (1 Bft)
28.06.2019 07:00 13,9 C 19,8 C 14,7 C 14,9 C 14,9 C 1,0 C 79 % 74 % 1026,1 hPa 0,0 l/m 0,3 km/h (0 Bft) SW 225 0 min 10,3 C 14,9 C 0,0 km/h (0 Bft)
28.06.2019 07:05 14,0 C 19,6 C 15,1 C 18,3 C 18,3 C 4,3 C 79 % 73 % 1026,0 hPa 0,0 l/m 0,3 km/h (0 Bft) S-SW 202 5 min 10,4 C 18,3 C 0,0 km/h (0 Bft)
28.06.2019 07:10 14,1 C 19,6 C 15,5 C 20,6 C 20,6 C 6,5 C 79 % 73 % 1026,0 hPa 0,0 l/m 0,2 km/h (0 Bft) SO 135 5 min 10,5 C 20,6 C 0,0 km/h (0 Bft)
28.06.2019 07:15 14,5 C 19,6 C 15,7 C 21,4 C 21,4 C 6,9 C 78 % 71 % 1026,0 hPa 0,0 l/m 0,5 km/h (0 Bft) S 180 5 min 10,7 C 21,4 C 0,0 km/h (0 Bft)
28.06.2019 07:20 14,7 C 19,6 C 15,6 C 20,2 C 20,2 C 5,5 C 77 % 71 % 1026,0 hPa 0,0 l/m 0,8 km/h (0 Bft) S-SW 202 5 min 10,7 C 20,2 C 4,8 km/h (1 Bft)
28.06.2019 07:25 14,6 C 19,6 C 15,2 C 18,4 C 18,4 C 3,8 C 76 % 71 % 1026,0 hPa 0,0 l/m 2,1 km/h (1 Bft) NO 45 5 min 10,4 C 18,4 C 13,0 km/h (3 Bft)
28.06.2019 07:30 14,7 C 19,6 C 15,2 C 17,7 C 17,7 C 3,0 C 76 % 71 % 1026,0 hPa 0,0 l/m 2,4 km/h (1 Bft) NW 315 0 min 10,5 C 17,7 C 2,3 km/h (1 Bft)
28.06.2019 07:35 14,8 C 19,6 C 15,4 C 17,4 C 17,4 C 2,6 C 75 % 71 % 1026,0 hPa 0,0 l/m 1,4 km/h (1 Bft) S 180 0 min 10,4 C 17,4 C 2,3 km/h (1 Bft)
28.06.2019 07:40 14,9 C 19,6 C 15,4 C 17,4 C 17,4 C 2,5 C 75 % 71 % 1026,0 hPa 0,0 l/m 1,3 km/h (1 Bft) W 270 0 min 10,5 C 17,4 C 4,3 km/h (1 Bft)
28.06.2019 07:45 14,9 C 19,5 C 15,5 C 17,2 C 17,2 C 2,3 C 75 % 71 % 1026,1 hPa 0,0 l/m 1,4 km/h (1 Bft) W-NW 292 0 min 10,5 C 17,2 C 5,5 km/h (1 Bft)
28.06.2019 07:50 15,0 C 19,5 C 15,5 C 17,1 C 17,1 C 2,1 C 75 % 71 % 1026,1 hPa 0,0 l/m 1,8 km/h (1 Bft) W 270 0 min 10,6 C 17,1 C 3,7 km/h (1 Bft)
28.06.2019 07:55 15,1 C 19,5 C 15,3 C 16,9 C 16,9 C 1,8 C 74 % 71 % 1026,1 hPa 0,0 l/m 2,3 km/h (1 Bft) SW 225 0 min 10,5 C 16,9 C 0,0 km/h (0 Bft)
28.06.2019 08:00 15,1 C 19,5 C 15,3 C 16,7 C 16,7 C 1,6 C 74 % 71 % 1026,1 hPa 0,0 l/m 2,4 km/h (1 Bft) SO 135 0 min 10,5 C 16,7 C 0,0 km/h (0 Bft)
28.06.2019 08:05 15,1 C 19,5 C 15,3 C 16,7 C 16,7 C 1,6 C 74 % 71 % 1026,1 hPa 0,0 l/m 2,1 km/h (1 Bft) W 270 0 min 10,5 C 16,7 C 1,6 km/h (1 Bft)
28.06.2019 08:11 15,0 C 19,5 C 15,4 C 16,7 C 16,7 C 1,7 C 74 % 71 % 1026,1 hPa 0,0 l/m 1,6 km/h (1 Bft) N 0 0 min 10,4 C 16,7 C 1,8 km/h (1 Bft)
28.06.2019 08:26 15,3 C 19,5 C 15,7 C 17,2 C 17,2 C 1,9 C 74 % 71 % 1026,2 hPa 0,0 l/m 1,9 km/h (1 Bft) S 180 0 min 10,7 C 17,2 C 0,0 km/h (0 Bft)
28.06.2019 08:35 15,5 C 19,5 C 15,9 C 17,3 C 17,3 C 1,8 C 73 % 70 % 1026,2 hPa 0,0 l/m 1,9 km/h (1 Bft) W-SW 247 0 min 10,7 C 17,3 C 2,9 km/h (1 Bft)
28.06.2019 08:40 15,3 C 19,5 C 15,9 C 17,5 C 17,5 C 2,2 C 73 % 70 % 1026,2 hPa 0,0 l/m 1,8 km/h (1 Bft) O 90 0 min 10,5 C 17,5 C 3,2 km/h (1 Bft)
28.06.2019 08:45 15,5 C 19,5 C 16,0 C 17,8 C 17,8 C 2,3 C 73 % 70 % 1026,3 hPa 0,0 l/m 1,9 km/h (1 Bft) W-NW 292 0 min 10,7 C 17,8 C 2,9 km/h (1 Bft)
28.06.2019 08:50 15,6 C 19,5 C 16,0 C 17,9 C 17,9 C 2,3 C 73 % 70 % 1026,3 hPa 0,0 l/m 1,1 km/h (1 Bft) S 180 0 min 10,8 C 17,9 C 0,0 km/h (0 Bft)
28.06.2019 08:55 15,9 C 19,5 C 16,3 C 18,5 C 18,5 C 2,6 C 73 % 70 % 1026,3 hPa 0,0 l/m 1,0 km/h (0 Bft) W-SW 247 0 min 11,1 C 18,5 C 4,3 km/h (1 Bft)
28.06.2019 09:00 15,9 C 19,5 C 16,3 C 18,5 C 18,5 C 2,6 C 73 % 69 % 1026,3 hPa 0,0 l/m 1,6 km/h (1 Bft) O-NO 67 0 min 11,1 C 18,5 C 2,1 km/h (1 Bft)
28.06.2019 09:05 16,1 C 19,5 C 16,4 C 18,8 C 18,8 C 2,7 C 72 % 69 % 1026,4 hPa 0,0 l/m 1,4 km/h (1 Bft) S-SO 157 0 min 11,0 C 18,8 C 1,9 km/h (1 Bft)
28.06.2019 09:10 16,0 C 19,5 C 16,6 C 19,0 C 19,0 C 3,0 C 72 % 68 % 1026,4 hPa 0,0 l/m 0,5 km/h (0 Bft) S-SW 202 0 min 11,0 C 19,0 C 0,0 km/h (0 Bft)
28.06.2019 09:15 16,2 C 19,5 C 16,8 C 19,4 C 19,4 C 3,2 C 72 % 68 % 1026,4 hPa 0,0 l/m 0,3 km/h (0 Bft) NW 315 0 min 11,1 C 19,4 C 2,6 km/h (1 Bft)
28.06.2019 09:20 16,3 C 19,5 C 16,9 C 19,6 C 19,6 C 3,3 C 71 % 68 % 1026,4 hPa 0,0 l/m 0,5 km/h (0 Bft) W-SW 247 5 min 11,0 C 19,6 C 0,0 km/h (0 Bft)
28.06.2019 09:25 16,6 C 19,5 C 17,1 C 19,9 C 19,9 C 3,3 C 71 % 67 % 1026,3 hPa 0,0 l/m 0,5 km/h (0 Bft) S 180 5 min 11,3 C 19,9 C 0,0 km/h (0 Bft)
28.06.2019 09:30 16,7 C 19,5 C 17,3 C 20,4 C 20,4 C 3,7 C 71 % 67 % 1026,3 hPa 0,0 l/m 0,8 km/h (0 Bft) S-SO 157 5 min 11,4 C 20,4 C 1,8 km/h (1 Bft)
28.06.2019 09:35 16,8 C 19,4 C 17,4 C 20,6 C 20,6 C 3,8 C 70 % 67 % 1026,3 hPa 0,0 l/m 1,1 km/h (1 Bft) SW 225 5 min 11,3 C 20,6 C 2,6 km/h (1 Bft)
28.06.2019 09:40 16,8 C 19,4 C 17,5 C 20,5 C 20,5 C 3,7 C 70 % 66 % 1026,3 hPa 0,0 l/m 1,1 km/h (1 Bft) SW 225 5 min 11,3 C 20,5 C 0,0 km/h (0 Bft)
28.06.2019 09:45 16,9 C 19,3 C 17,6 C 20,6 C 20,6 C 3,7 C 70 % 66 % 1026,2 hPa 0,0 l/m 0,8 km/h (0 Bft) W-NW 292 5 min 11,4 C 20,6 C 2,3 km/h (1 Bft)
28.06.2019 09:50 17,1 C 19,3 C 17,7 C 20,8 C 20,8 C 3,7 C 69 % 65 % 1026,2 hPa 0,0 l/m 0,3 km/h (0 Bft) S-SW 202 5 min 11,4 C 20,8 C 0,0 km/h (0 Bft)
28.06.2019 09:55 17,2 C 19,3 C 17,6 C 20,7 C 20,7 C 3,5 C 69 % 65 % 1026,2 hPa 0,0 l/m 0,8 km/h (0 Bft) SW 225 5 min 11,5 C 20,7 C 0,0 km/h (0 Bft)
28.06.2019 10:00 17,2 C 19,3 C 17,7 C 20,6 C 20,6 C 3,4 C 68 % 65 % 1026,2 hPa 0,0 l/m 1,0 km/h (0 Bft) S 180 5 min 11,2 C 20,6 C 0,0 km/h (0 Bft)
28.06.2019 10:05 17,2 C 19,3 C 17,9 C 20,7 C 20,7 C 3,5 C 68 % 64 % 1026,2 hPa 0,0 l/m 0,6 km/h (0 Bft) SW 225 5 min 11,2 C 20,7 C 2,1 km/h (1 Bft)
28.06.2019 10:11 17,1 C 19,3 C 17,9 C 20,8 C 20,8 C 3,7 C 68 % 63 % 1026,2 hPa 0,0 l/m 0,8 km/h (0 Bft) N 0 6 min 11,1 C 20,8 C 3,9 km/h (1 Bft)
28.06.2019 10:24 17,3 C 19,3 C 17,9 C 20,9 C 20,9 C 3,6 C 65 % 61 % 1026,4 hPa 0,0 l/m 1,6 km/h (1 Bft) NW 315 13 min 10,7 C 20,9 C 6,6 km/h (2 Bft)
28.06.2019 10:25 17,3 C 19,3 C 17,9 C 20,9 C 20,9 C 3,6 C 65 % 61 % 1026,4 hPa 0,0 l/m 1,6 km/h (1 Bft) NW 315 1 min 10,7 C 20,9 C 6,6 km/h (2 Bft)
28.06.2019 10:35 17,4 C 19,3 C 18,0 C 21,6 C 21,6 C 4,2 C 65 % 60 % 1026,4 hPa 0,0 l/m 1,4 km/h (1 Bft) S-SO 157 10 min 10,8 C 21,6 C 0,0 km/h (0 Bft)
28.06.2019 10:40 17,6 C 19,2 C 18,1 C 22,0 C 22,0 C 4,4 C 64 % 60 % 1026,4 hPa 0,0 l/m 1,0 km/h (0 Bft) S-SO 157 5 min 10,7 C 22,0 C 1,6 km/h (1 Bft)
28.06.2019 10:45 17,6 C 19,2 C 18,2 C 21,8 C 21,8 C 4,2 C 64 % 60 % 1026,0 hPa 0,0 l/m 0,8 km/h (0 Bft) SW 225 5 min 10,7 C 21,8 C 0,0 km/h (0 Bft)
28.06.2019 10:50 17,6 C 19,2 C 18,3 C 21,7 C 21,7 C 4,1 C 64 % 60 % 1026,0 hPa 0,0 l/m 0,8 km/h (0 Bft) S 180 5 min 10,7 C 21,7 C 1,8 km/h (1 Bft)
28.06.2019 10:55 17,6 C 19,2 C 18,4 C 21,7 C 21,7 C 4,1 C 64 % 60 % 1026,0 hPa 0,0 l/m 0,6 km/h (0 Bft) S 180 5 min 10,7 C 21,7 C 2,7 km/h (1 Bft)
28.06.2019 11:00 17,6 C 19,2 C 18,5 C 21,8 C 21,8 C 4,2 C 64 % 60 % 1026,0 hPa 0,0 l/m 0,8 km/h (0 Bft) S-SO 157 5 min 10,7 C 21,8 C 1,6 km/h (1 Bft)
28.06.2019 11:05 17,7 C 19,2 C 18,6 C 22,0 C 22,0 C 4,3 C 64 % 60 % 1025,9 hPa 0,0 l/m 1,1 km/h (1 Bft) S 180 5 min 10,8 C 22,0 C 0,0 km/h (0 Bft)
28.06.2019 11:10 17,9 C 19,2 C 18,7 C 22,3 C 22,3 C 4,4 C 63 % 59 % 1025,9 hPa 0,0 l/m 1,1 km/h (1 Bft) S-SW 202 5 min 10,8 C 22,3 C 2,9 km/h (1 Bft)
28.06.2019 11:15 17,9 C 19,2 C 18,8 C 22,5 C 22,5 C 4,6 C 62 % 58 % 1025,9 hPa 0,0 l/m 1,1 km/h (1 Bft) W-SW 247 5 min 10,5 C 22,5 C 2,4 km/h (1 Bft)
28.06.2019 11:20 17,9 C 19,2 C 18,9 C 24,9 C 24,9 C 7,0 C 62 % 57 % 1025,9 hPa 0,0 l/m 1,6 km/h (1 Bft) O-NO 67 5 min 10,5 C 24,9 C 2,1 km/h (1 Bft)
28.06.2019 11:25 18,1 C 19,2 C 19,0 C 25,4 C 25,4 C 7,3 C 62 % 58 % 1025,8 hPa 0,0 l/m 1,6 km/h (1 Bft) SW 225 5 min 10,7 C 25,4 C 2,3 km/h (1 Bft)
28.06.2019 11:30 18,3 C 19,2 C 19,3 C 26,4 C 26,4 C 8,1 C 62 % 57 % 1025,8 hPa 0,0 l/m 1,6 km/h (1 Bft) S 180 5 min 10,9 C 26,4 C 1,9 km/h (1 Bft)
28.06.2019 11:35 18,6 C 19,2 C 19,7 C 28,0 C 28,0 C 9,4 C 62 % 57 % 1025,8 hPa 0,0 l/m 1,6 km/h (1 Bft) SW 225 5 min 11,2 C 28,0 C 4,5 km/h (1 Bft)
28.06.2019 11:40 18,9 C 19,2 C 19,6 C 27,7 C 27,7 C 8,8 C 61 % 55 % 1025,8 hPa 0,0 l/m 1,8 km/h (1 Bft) SO 135 5 min 11,2 C 27,7 C 2,6 km/h (1 Bft)
28.06.2019 11:45 18,9 C 19,2 C 19,5 C 26,6 C 26,6 C 7,7 C 60 % 55 % 1025,9 hPa 0,0 l/m 2,3 km/h (1 Bft) S-SW 202 5 min 11,0 C 26,6 C 3,7 km/h (1 Bft)
28.06.2019 11:50 18,8 C 19,2 C 19,5 C 26,2 C 26,2 C 7,4 C 60 % 56 % 1025,9 hPa 0,0 l/m 1,8 km/h (1 Bft) W-SW 247 5 min 10,9 C 26,2 C 5,6 km/h (1 Bft)
28.06.2019 11:55 18,9 C 19,2 C 19,4 C 25,0 C 25,0 C 6,1 C 60 % 55 % 1025,9 hPa 0,0 l/m 1,8 km/h (1 Bft) O-SO 112 5 min 11,0 C 25,0 C 2,4 km/h (1 Bft)
28.06.2019 12:00 18,9 C 19,2 C 19,4 C 24,8 C 24,8 C 5,9 C 60 % 55 % 1025,9 hPa 0,0 l/m 1,6 km/h (1 Bft) N-NO 22 5 min 11,0 C 24,8 C 0,0 km/h (0 Bft)
28.06.2019 12:05 18,9 C 19,2 C 19,5 C 24,6 C 24,6 C 5,7 C 60 % 56 % 1025,8 hPa 0,0 l/m 1,4 km/h (1 Bft) S 180 5 min 11,0 C 24,6 C 2,1 km/h (1 Bft)
28.06.2019 12:11 18,9 C 19,2 C 19,6 C 24,4 C 24,4 C 5,5 C 60 % 56 % 1025,8 hPa 0,0 l/m 1,0 km/h (0 Bft) N 0 6 min 11,0 C 24,4 C 1,6 km/h (1 Bft)
28.06.2019 12:24 19,2 C 19,2 C 20,5 C 26,9 C 26,9 C 7,7 C 60 % 55 % 1025,7 hPa 0,0 l/m 1,3 km/h (1 Bft) S-SO 157 13 min 11,2 C 26,9 C 2,1 km/h (1 Bft)
28.06.2019 12:35 19,2 C 19,2 C 20,1 C 25,5 C 25,5 C 6,3 C 59 % 54 % 1025,7 hPa 0,0 l/m 2,1 km/h (1 Bft) S-SO 157 11 min 11,0 C 25,5 C 4,2 km/h (1 Bft)
28.06.2019 12:40 19,2 C 19,2 C 20,1 C 25,0 C 25,0 C 5,8 C 59 % 54 % 1025,7 hPa 0,0 l/m 1,8 km/h (1 Bft) W 270 5 min 11,0 C 25,0 C 0,0 km/h (0 Bft)
28.06.2019 12:45 19,4 C 19,2 C 20,4 C 25,4 C 25,4 C 6,0 C 59 % 53 % 1025,6 hPa 0,0 l/m 1,0 km/h (0 Bft) O-SO 112 5 min 11,2 C 25,4 C 1,6 km/h (1 Bft)
28.06.2019 12:50 19,9 C 19,1 C 20,7 C 26,8 C 26,8 C 6,9 C 58 % 54 % 1025,6 hPa 0,0 l/m 1,0 km/h (0 Bft) O-SO 112 5 min 11,4 C 26,8 C 0,0 km/h (0 Bft)
28.06.2019 12:55 20,3 C 19,1 C 20,5 C 26,8 C 26,8 C 6,5 C 58 % 54 % 1025,6 hPa 0,0 l/m 1,4 km/h (1 Bft) S-SW 202 5 min 11,8 C 26,8 C 1,9 km/h (1 Bft)
28.06.2019 13:00 20,5 C 19,1 C 20,6 C 26,5 C 26,5 C 6,0 C 57 % 54 % 1025,6 hPa 0,0 l/m 1,4 km/h (1 Bft) W-SW 247 5 min 11,7 C 26,5 C 4,0 km/h (1 Bft)
28.06.2019 13:05 20,3 C 19,1 C 20,8 C 25,7 C 25,7 C 5,4 C 56 % 53 % 1025,8 hPa 0,0 l/m 1,4 km/h (1 Bft) S-SW 202 5 min 11,2 C 25,7 C 1,6 km/h (1 Bft)
28.06.2019 13:10 20,5 C 19,1 C 21,1 C 26,4 C 26,4 C 5,9 C 56 % 53 % 1025,8 hPa 0,0 l/m 1,6 km/h (1 Bft) SO 135 5 min 11,4 C 26,4 C 4,0 km/h (1 Bft)
28.06.2019 13:15 20,7 C 19,1 C 21,5 C 26,8 C 26,8 C 6,1 C 56 % 50 % 1025,8 hPa 0,0 l/m 2,1 km/h (1 Bft) NO 45 5 min 11,6 C 26,8 C 2,7 km/h (1 Bft)
28.06.2019 13:20 20,6 C 19,1 C 21,1 C 26,8 C 26,8 C 6,2 C 55 % 51 % 1025,8 hPa 0,0 l/m 2,1 km/h (1 Bft) S 180 5 min 11,2 C 26,8 C 2,9 km/h (1 Bft)
28.06.2019 13:25 21,2 C 19,1 C 21,0 C 27,0 C 27,0 C 5,8 C 55 % 52 % 1025,6 hPa 0,0 l/m 0,6 km/h (0 Bft) O-NO 67 5 min 11,8 C 27,0 C 1,8 km/h (1 Bft)
28.06.2019 13:30 21,5 C 19,1 C 20,9 C 26,8 C 26,8 C 5,3 C 54 % 52 % 1025,6 hPa 0,0 l/m 0,8 km/h (0 Bft) S 180 5 min 11,8 C 26,8 C 1,9 km/h (1 Bft)
28.06.2019 13:35 21,7 C 19,1 C 20,9 C 27,1 C 27,1 C 5,4 C 53 % 52 % 1025,6 hPa 0,0 l/m 1,1 km/h (1 Bft) NO 45 5 min 11,7 C 27,1 C 0,0 km/h (0 Bft)
28.06.2019 13:40 21,9 C 19,1 C 20,8 C 27,7 C 27,7 C 5,8 C 53 % 51 % 1025,6 hPa 0,0 l/m 1,6 km/h (1 Bft) W 270 5 min 11,9 C 27,7 C 6,3 km/h (2 Bft)
28.06.2019 13:45 21,9 C 19,1 C 20,6 C 27,5 C 27,5 C 5,6 C 52 % 51 % 1025,5 hPa 0,0 l/m 2,6 km/h (1 Bft) NW 315 5 min 11,6 C 27,5 C 6,0 km/h (2 Bft)
28.06.2019 13:50 21,8 C 19,1 C 20,6 C 27,3 C 27,3 C 5,5 C 52 % 52 % 1025,5 hPa 0,0 l/m 2,9 km/h (1 Bft) W-SW 247 5 min 11,5 C 27,3 C 1,8 km/h (1 Bft)
28.06.2019 13:55 22,1 C 19,1 C 21,1 C 28,3 C 28,3 C 6,2 C 52 % 52 % 1025,5 hPa 0,0 l/m 1,3 km/h (1 Bft) S 180 5 min 11,8 C 28,3 C 2,1 km/h (1 Bft)
28.06.2019 14:00 22,3 C 19,1 C 21,4 C 28,6 C 28,6 C 6,3 C 52 % 52 % 1025,5 hPa 0,0 l/m 1,0 km/h (0 Bft) W-NW 292 5 min 12,0 C 28,6 C 1,8 km/h (1 Bft)
28.06.2019 14:05 22,5 C 19,0 C 21,7 C 29,1 C 29,1 C 6,6 C 51 % 51 % 1025,2 hPa 0,0 l/m 1,4 km/h (1 Bft) S-SO 157 5 min 11,8 C 29,1 C 2,3 km/h (1 Bft)
28.06.2019 14:11 22,7 C 19,0 C 22,1 C 29,0 C 29,0 C 6,3 C 51 % 51 % 1025,2 hPa 0,0 l/m 1,0 km/h (0 Bft) N 0 6 min 12,0 C 29,0 C 2,3 km/h (1 Bft)
28.06.2019 14:24 23,5 C 19,1 C 22,5 C 29,5 C 29,5 C 6,0 C 50 % 49 % 1025,2 hPa 0,0 l/m 1,3 km/h (1 Bft) NO 45 13 min 12,5 C 29,5 C 0,0 km/h (0 Bft)
28.06.2019 14:35 23,7 C 19,1 C 22,7 C 29,9 C 29,9 C 6,2 C 48 % 48 % 1025,2 hPa 0,0 l/m 1,3 km/h (1 Bft) O-NO 67 11 min 12,0 C 29,9 C 5,1 km/h (1 Bft)
28.06.2019 14:40 23,6 C 19,1 C 22,4 C 29,7 C 29,7 C 6,1 C 49 % 49 % 1025,2 hPa 0,0 l/m 1,1 km/h (1 Bft) S 180 5 min 12,2 C 29,7 C 0,0 km/h (0 Bft)
28.06.2019 14:45 23,3 C 19,2 C 22,3 C 29,5 C 29,5 C 6,2 C 47 % 48 % 1024,8 hPa 0,0 l/m 2,1 km/h (1 Bft) NW 315 5 min 11,3 C 29,5 C 2,6 km/h (1 Bft)
28.06.2019 14:50 23,1 C 19,2 C 22,3 C 29,2 C 29,2 C 6,1 C 48 % 49 % 1024,8 hPa 0,0 l/m 1,8 km/h (1 Bft) S-SW 202 5 min 11,5 C 29,2 C 2,3 km/h (1 Bft)
28.06.2019 14:55 23,5 C 19,2 C 22,6 C 29,5 C 29,5 C 6,0 C 49 % 49 % 1024,8 hPa 0,0 l/m 1,1 km/h (1 Bft) W 270 5 min 12,2 C 29,5 C 6,3 km/h (2 Bft)
28.06.2019 15:00 23,9 C 19,2 C 22,8 C 29,8 C 29,8 C 5,9 C 48 % 49 % 1024,8 hPa 0,0 l/m 1,0 km/h (0 Bft) W-SW 247 5 min 12,2 C 29,8 C 3,9 km/h (1 Bft)
28.06.2019 15:05 23,9 C 19,2 C 22,6 C 29,5 C 29,5 C 5,6 C 47 % 47 % 1024,7 hPa 0,0 l/m 2,9 km/h (1 Bft) O-NO 67 5 min 11,9 C 29,5 C 7,2 km/h (2 Bft)
28.06.2019 15:10 23,1 C 19,2 C 22,3 C 28,4 C 28,4 C 5,3 C 48 % 48 % 1024,7 hPa 0,0 l/m 3,5 km/h (1 Bft) O-NO 67 5 min 11,5 C 28,4 C 2,9 km/h (1 Bft)
28.06.2019 15:15 22,8 C 19,2 C 22,3 C 28,6 C 28,6 C 5,8 C 49 % 48 % 1024,7 hPa 0,0 l/m 2,6 km/h (1 Bft) W-NW 292 5 min 11,5 C 28,6 C 1,8 km/h (1 Bft)
28.06.2019 15:20 23,1 C 19,2 C 22,6 C 29,3 C 29,3 C 6,2 C 49 % 49 % 1024,7 hPa 0,0 l/m 1,4 km/h (1 Bft) S-SW 202 5 min 11,8 C 29,3 C 0,0 km/h (0 Bft)
28.06.2019 15:25 23,6 C 19,3 C 23,1 C 30,0 C 30,0 C 6,4 C 48 % 46 % 1024,6 hPa 0,0 l/m 1,4 km/h (1 Bft) W-SW 247 5 min 11,9 C 30,0 C 4,5 km/h (1 Bft)
28.06.2019 15:30 23,6 C 19,3 C 23,2 C 30,0 C 30,0 C 6,4 C 47 % 46 % 1024,6 hPa 0,0 l/m 2,3 km/h (1 Bft) W 270 5 min 11,6 C 30,0 C 7,9 km/h (2 Bft)
28.06.2019 15:35 23,5 C 19,3 C 23,0 C 29,8 C 29,8 C 6,3 C 47 % 46 % 1024,6 hPa 0,0 l/m 2,4 km/h (1 Bft) NO 45 5 min 11,5 C 29,8 C 2,4 km/h (1 Bft)
28.06.2019 15:40 23,4 C 19,3 C 22,9 C 29,9 C 29,9 C 6,5 C 47 % 45 % 1024,6 hPa 0,0 l/m 2,3 km/h (1 Bft) N 360 5 min 11,4 C 29,9 C 0,0 km/h (0 Bft)
28.06.2019 15:45 23,5 C 19,3 C 23,1 C 30,3 C 30,3 C 6,8 C 47 % 46 % 1024,4 hPa 0,0 l/m 1,4 km/h (1 Bft) S 180 5 min 11,5 C 30,3 C 7,4 km/h (2 Bft)
28.06.2019 15:50 23,3 C 19,3 C 23,3 C 30,2 C 30,2 C 6,9 C 47 % 45 % 1024,4 hPa 0,0 l/m 1,8 km/h (1 Bft) O-SO 112 5 min 11,3 C 30,2 C 4,3 km/h (1 Bft)
28.06.2019 15:55 23,1 C 19,3 C 22,8 C 29,7 C 29,7 C 6,6 C 48 % 46 % 1024,4 hPa 0,0 l/m 2,4 km/h (1 Bft) W 270 5 min 11,5 C 29,7 C 0,0 km/h (0 Bft)
28.06.2019 16:00 23,0 C 19,3 C 23,1 C 30,0 C 30,0 C 7,0 C 48 % 46 % 1024,4 hPa 0,0 l/m 1,8 km/h (1 Bft) S 180 5 min 11,4 C 30,0 C 2,6 km/h (1 Bft)
28.06.2019 16:05 23,1 C 19,3 C 23,5 C 30,3 C 30,3 C 7,2 C 48 % 45 % 1024,6 hPa 0,0 l/m 1,9 km/h (1 Bft) SO 135 5 min 11,5 C 30,3 C 4,7 km/h (1 Bft)
28.06.2019 16:11 23,2 C 19,4 C 23,4 C 30,4 C 30,4 C 7,2 C 48 % 45 % 1024,6 hPa 0,0 l/m 1,8 km/h (1 Bft) N 0 6 min 11,6 C 30,4 C 0,0 km/h (0 Bft)
28.06.2019 16:26 23,4 C 19,4 C 24,2 C 30,8 C 30,8 C 7,4 C 47 % 43 % 1024,6 hPa 0,0 l/m 1,8 km/h (1 Bft) S-SO 157 15 min 11,4 C 30,8 C 2,1 km/h (1 Bft)
28.06.2019 16:35 23,3 C 19,4 C 23,9 C 30,3 C 30,3 C 7,0 C 46 % 42 % 1024,6 hPa 0,0 l/m 2,6 km/h (1 Bft) N-NW 337 9 min 11,0 C 30,3 C 2,9 km/h (1 Bft)
28.06.2019 16:40 23,2 C 19,4 C 23,9 C 30,3 C 30,3 C 7,1 C 46 % 42 % 1024,6 hPa 0,0 l/m 3,1 km/h (1 Bft) N 360 5 min 10,9 C 30,3 C 4,0 km/h (1 Bft)
28.06.2019 16:45 23,4 C 19,4 C 23,9 C 30,2 C 30,2 C 6,8 C 46 % 43 % 1024,4 hPa 0,0 l/m 2,7 km/h (1 Bft) S-SO 157 5 min 11,1 C 30,2 C 5,3 km/h (1 Bft)
28.06.2019 16:50 23,5 C 19,4 C 24,3 C 30,5 C 30,5 C 7,0 C 46 % 42 % 1024,4 hPa 0,0 l/m 2,6 km/h (1 Bft) SW 225 5 min 11,2 C 30,5 C 2,7 km/h (1 Bft)
28.06.2019 16:55 23,7 C 19,4 C 24,4 C 30,8 C 30,8 C 7,1 C 45 % 41 % 1024,4 hPa 0,0 l/m 2,3 km/h (1 Bft) W-SW 247 5 min 11,1 C 30,8 C 1,8 km/h (1 Bft)
28.06.2019 17:00 23,9 C 19,5 C 24,2 C 31,0 C 31,0 C 7,1 C 45 % 40 % 1024,4 hPa 0,0 l/m 1,9 km/h (1 Bft) W 270 5 min 11,2 C 31,0 C 3,5 km/h (1 Bft)
28.06.2019 17:05 24,0 C 19,5 C 24,5 C 30,8 C 30,8 C 6,8 C 44 % 42 % 1024,6 hPa 0,0 l/m 1,9 km/h (1 Bft) W-SW 247 5 min 11,0 C 30,8 C 2,9 km/h (1 Bft)
28.06.2019 17:10 24,1 C 19,5 C 24,6 C 30,9 C 30,9 C 6,8 C 44 % 39 % 1024,6 hPa 0,0 l/m 2,1 km/h (1 Bft) W-NW 292 5 min 11,1 C 30,9 C 4,8 km/h (1 Bft)
28.06.2019 17:15 23,9 C 19,5 C 24,5 C 31,0 C 31,0 C 7,1 C 44 % 41 % 1024,6 hPa 0,0 l/m 1,3 km/h (1 Bft) S 180 5 min 10,9 C 31,0 C 0,0 km/h (0 Bft)
28.06.2019 17:20 24,0 C 19,5 C 24,5 C 31,4 C 31,4 C 7,4 C 44 % 41 % 1024,6 hPa 0,0 l/m 1,3 km/h (1 Bft) W-SW 247 5 min 11,0 C 31,4 C 0,0 km/h (0 Bft)
28.06.2019 17:25 24,0 C 19,5 C 24,5 C 31,4 C 31,4 C 7,4 C 44 % 39 % 1024,4 hPa 0,0 l/m 1,9 km/h (1 Bft) NW 315 5 min 11,0 C 31,4 C 6,0 km/h (2 Bft)
28.06.2019 17:30 23,9 C 19,5 C 24,3 C 30,9 C 30,9 C 7,0 C 43 % 39 % 1024,4 hPa 0,0 l/m 2,6 km/h (1 Bft) S 180 5 min 10,5 C 30,9 C 3,4 km/h (1 Bft)
28.06.2019 17:35 23,8 C 19,5 C 24,0 C 30,5 C 30,5 C 6,7 C 43 % 39 % 1024,4 hPa 0,0 l/m 3,4 km/h (1 Bft) S-SW 202 5 min 10,5 C 30,5 C 1,9 km/h (1 Bft)
28.06.2019 17:40 23,8 C 19,5 C 23,9 C 30,2 C 30,2 C 6,4 C 43 % 39 % 1024,4 hPa 0,0 l/m 2,7 km/h (1 Bft) O 90 5 min 10,5 C 30,2 C 3,7 km/h (1 Bft)
28.06.2019 17:45 23,6 C 19,5 C 24,0 C 30,1 C 30,1 C 6,5 C 43 % 41 % 1024,2 hPa 0,0 l/m 1,6 km/h (1 Bft) S 180 5 min 10,3 C 30,1 C 0,0 km/h (0 Bft)
28.06.2019 17:50 23,6 C 19,6 C 23,9 C 30,8 C 30,8 C 7,2 C 43 % 40 % 1024,2 hPa 0,0 l/m 1,3 km/h (1 Bft) N 360 5 min 10,3 C 30,8 C 2,3 km/h (1 Bft)
28.06.2019 17:55 23,6 C 19,6 C 23,9 C 30,8 C 30,8 C 7,2 C 43 % 40 % 1024,2 hPa 0,0 l/m 1,4 km/h (1 Bft) O 90 5 min 10,3 C 30,8 C 0,0 km/h (0 Bft)
28.06.2019 18:00 23,7 C 19,6 C 23,9 C 31,1 C 31,1 C 7,4 C 43 % 39 % 1024,2 hPa 0,0 l/m 1,8 km/h (1 Bft) SW 225 5 min 10,4 C 31,1 C 0,0 km/h (0 Bft)
28.06.2019 18:05 23,7 C 19,7 C 23,8 C 30,9 C 30,9 C 7,2 C 42 % 39 % 1024,1 hPa 0,0 l/m 2,1 km/h (1 Bft) W 270 5 min 10,0 C 30,9 C 3,5 km/h (1 Bft)
28.06.2019 18:11 23,7 C 19,7 C 23,7 C 30,7 C 30,7 C 7,0 C 43 % 40 % 1024,1 hPa 0,0 l/m 1,8 km/h (1 Bft) N 0 6 min 10,4 C 30,7 C 0,0 km/h (0 Bft)
28.06.2019 18:24 23,6 C 19,7 C 23,6 C 30,5 C 30,5 C 6,9 C 44 % 42 % 1024,1 hPa 0,0 l/m 2,1 km/h (1 Bft) W 270 13 min 10,6 C 30,5 C 5,0 km/h (1 Bft)
28.06.2019 18:25 23,6 C 19,7 C 23,6 C 30,5 C 30,5 C 6,9 C 44 % 42 % 1024,1 hPa 0,0 l/m 2,1 km/h (1 Bft) W 270 1 min 10,6 C 30,5 C 5,0 km/h (1 Bft)
28.06.2019 18:35 23,7 C 19,7 C 23,8 C 30,6 C 30,6 C 6,9 C 44 % 46 % 1024,1 hPa 0,0 l/m 1,6 km/h (1 Bft) SW 225 10 min 10,7 C 30,6 C 2,1 km/h (1 Bft)
28.06.2019 18:40 23,7 C 19,7 C 23,6 C 30,6 C 30,6 C 6,9 C 44 % 44 % 1024,1 hPa 0,0 l/m 1,3 km/h (1 Bft) W 270 5 min 10,7 C 30,6 C 2,1 km/h (1 Bft)
28.06.2019 18:45 23,7 C 19,7 C 23,6 C 30,6 C 30,6 C 6,9 C 44 % 43 % 1024,2 hPa 0,0 l/m 1,6 km/h (1 Bft) N 360 5 min 10,7 C 30,6 C 0,0 km/h (0 Bft)
28.06.2019 18:50 23,8 C 19,7 C 23,6 C 30,4 C 30,4 C 6,6 C 43 % 42 % 1024,2 hPa 0,0 l/m 1,3 km/h (1 Bft) O-SO 112 5 min 10,5 C 30,4 C 0,0 km/h (0 Bft)
28.06.2019 18:55 23,8 C 19,7 C 23,5 C 30,6 C 30,6 C 6,8 C 43 % 41 % 1024,2 hPa 0,0 l/m 1,1 km/h (1 Bft) SW 225 5 min 10,5 C 30,6 C 2,9 km/h (1 Bft)
28.06.2019 19:00 23,9 C 19,7 C 23,5 C 30,3 C 30,3 C 6,4 C 43 % 42 % 1024,2 hPa 0,0 l/m 1,1 km/h (1 Bft) W 270 5 min 10,5 C 30,3 C 4,3 km/h (1 Bft)
28.06.2019 19:05 23,8 C 19,7 C 23,4 C 30,0 C 30,0 C 6,2 C 43 % 41 % 1024,1 hPa 0,0 l/m 1,6 km/h (1 Bft) N-NW 337 5 min 10,5 C 30,0 C 3,1 km/h (1 Bft)
28.06.2019 19:10 23,7 C 19,7 C 23,3 C 29,7 C 29,7 C 6,0 C 43 % 41 % 1024,1 hPa 0,0 l/m 2,1 km/h (1 Bft) W 270 5 min 10,4 C 29,7 C 4,7 km/h (1 Bft)
28.06.2019 19:15 23,7 C 19,7 C 23,3 C 29,2 C 29,2 C 5,5 C 43 % 41 % 1024,1 hPa 0,0 l/m 2,7 km/h (1 Bft) S 180 5 min 10,4 C 29,2 C 6,4 km/h (2 Bft)
28.06.2019 19:20 23,6 C 19,7 C 23,1 C 28,9 C 28,9 C 5,3 C 43 % 40 % 1024,1 hPa 0,0 l/m 3,1 km/h (1 Bft) SW 225 5 min 10,3 C 28,9 C 1,6 km/h (1 Bft)
28.06.2019 19:25 23,7 C 19,7 C 23,3 C 28,9 C 28,9 C 5,2 C 43 % 43 % 1023,9 hPa 0,0 l/m 1,8 km/h (1 Bft) SW 225 5 min 10,4 C 28,9 C 0,0 km/h (0 Bft)
28.06.2019 19:30 23,7 C 19,7 C 23,3 C 29,0 C 29,0 C 5,3 C 43 % 43 % 1023,9 hPa 0,0 l/m 1,1 km/h (1 Bft) S 180 5 min 10,4 C 29,0 C 0,0 km/h (0 Bft)
28.06.2019 19:35 23,8 C 19,7 C 23,3 C 29,1 C 29,1 C 5,3 C 43 % 43 % 1023,9 hPa 0,0 l/m 0,8 km/h (0 Bft) N-NW 337 5 min 10,5 C 29,1 C 0,0 km/h (0 Bft)
28.06.2019 19:40 23,8 C 19,7 C 23,3 C 29,4 C 29,4 C 5,6 C 43 % 43 % 1023,9 hPa 0,0 l/m 0,0 km/h (0 Bft) O-SO 112 5 min 10,5 C 29,4 C 0,0 km/h (0 Bft)
28.06.2019 19:45 23,9 C 19,7 C 23,1 C 29,0 C 29,0 C 5,1 C 44 % 44 % 1023,9 hPa 0,0 l/m 1,0 km/h (0 Bft) N-NW 337 5 min 10,9 C 29,0 C 0,0 km/h (0 Bft)
28.06.2019 19:50 23,6 C 19,7 C 23,0 C 28,6 C 28,6 C 5,0 C 44 % 44 % 1023,9 hPa 0,0 l/m 1,4 km/h (1 Bft) N-NW 337 5 min 10,6 C 28,6 C 0,0 km/h (0 Bft)
28.06.2019 19:55 23,5 C 19,7 C 22,7 C 27,9 C 27,9 C 4,4 C 45 % 43 % 1023,9 hPa 0,0 l/m 1,8 km/h (1 Bft) W-NW 292 5 min 10,9 C 27,9 C 3,5 km/h (1 Bft)
28.06.2019 20:00 23,2 C 19,7 C 22,6 C 27,4 C 27,4 C 4,2 C 45 % 44 % 1023,9 hPa 0,0 l/m 2,1 km/h (1 Bft) W-NW 292 5 min 10,6 C 27,4 C 1,8 km/h (1 Bft)
28.06.2019 20:05 23,1 C 19,7 C 22,5 C 27,2 C 27,2 C 4,1 C 45 % 45 % 1023,8 hPa 0,0 l/m 1,4 km/h (1 Bft) O-NO 67 5 min 10,5 C 27,2 C 0,0 km/h (0 Bft)
28.06.2019 20:11 23,0 C 19,7 C 22,4 C 27,0 C 27,0 C 4,0 C 46 % 45 % 1023,8 hPa 0,0 l/m 0,8 km/h (0 Bft) N 0 6 min 10,7 C 27,0 C 3,1 km/h (1 Bft)
28.06.2019 20:26 22,7 C 19,7 C 21,9 C 26,0 C 26,0 C 3,3 C 46 % 46 % 1024,0 hPa 0,0 l/m 0,5 km/h (0 Bft) W 270 15 min 10,5 C 26,0 C 0,0 km/h (0 Bft)
28.06.2019 20:35 22,1 C 19,7 C 21,5 C 25,4 C 25,4 C 3,3 C 47 % 46 % 1024,0 hPa 0,0 l/m 0,2 km/h (0 Bft) NW 315 9 min 10,3 C 25,4 C 2,1 km/h (1 Bft)
28.06.2019 20:40 22,0 C 19,7 C 21,3 C 24,9 C 24,9 C 2,9 C 47 % 47 % 1024,0 hPa 0,0 l/m 0,2 km/h (0 Bft) N-NO 22 5 min 10,2 C 24,9 C 0,0 km/h (0 Bft)
28.06.2019 20:45 21,7 C 19,7 C 21,1 C 23,9 C 23,9 C 2,2 C 48 % 48 % 1024,1 hPa 0,0 l/m 0,0 km/h (0 Bft) NO 45 5 min 10,2 C 23,9 C 0,0 km/h (0 Bft)
28.06.2019 20:50 21,6 C 19,7 C 20,8 C 23,0 C 23,0 C 1,4 C 48 % 50 % 1024,1 hPa 0,0 l/m 0,0 km/h (0 Bft) O-NO 67 5 min 10,1 C 23,0 C 0,0 km/h (0 Bft)
28.06.2019 20:55 21,2 C 19,8 C 20,5 C 21,6 C 21,6 C 0,4 C 49 % 50 % 1024,1 hPa 0,0 l/m 0,0 km/h (0 Bft) NO 45 0 min 10,1 C 21,6 C 0,0 km/h (0 Bft)
28.06.2019 21:00 21,1 C 19,8 C 20,3 C 21,0 C 20,9 C 0,0 C 49 % 51 % 1024,1 hPa 0,0 l/m 0,0 km/h (0 Bft) NO 45 0 min 10,0 C 20,9 C 0,0 km/h (0 Bft)
28.06.2019 21:05 20,8 C 19,7 C 20,0 C 20,6 C 20,1 C 0,0 C 50 % 52 % 1024,1 hPa 0,0 l/m 0,0 km/h (0 Bft) NO 45 0 min 10,0 C 20,1 C 0,0 km/h (0 Bft)
28.06.2019 21:10 20,7 C 19,7 C 19,7 C 20,4 C 19,7 C 0,0 C 50 % 53 % 1024,1 hPa 0,0 l/m 0,0 km/h (0 Bft) NO 45 0 min 9,9 C 19,7 C 0,0 km/h (0 Bft)
28.06.2019 21:15 20,2 C 19,7 C 19,5 C 19,8 C 19,1 C 0,0 C 51 % 54 % 1024,1 hPa 0,0 l/m 0,0 km/h (0 Bft) NO 45 0 min 9,7 C 19,1 C 0,0 km/h (0 Bft)
28.06.2019 21:20 20,1 C 19,7 C 19,3 C 19,6 C 18,7 C 0,0 C 52 % 55 % 1024,1 hPa 0,0 l/m 0,0 km/h (0 Bft) NO 45 0 min 9,9 C 18,7 C 0,0 km/h (0 Bft)
28.06.2019 21:25 19,9 C 19,7 C 19,0 C 19,3 C 18,1 C 0,0 C 52 % 54 % 1024,2 hPa 0,0 l/m 0,0 km/h (0 Bft) NO 45 0 min 9,7 C 18,1 C 0,0 km/h (0 Bft)
28.06.2019 21:30 19,6 C 19,7 C 18,9 C 19,0 C 17,7 C 0,0 C 52 % 56 % 1024,2 hPa 0,0 l/m 0,0 km/h (0 Bft) NO 45 0 min 9,5 C 17,7 C 0,0 km/h (0 Bft)
28.06.2019 21:35 19,5 C 19,7 C 18,6 C 18,7 C 17,1 C 0,0 C 54 % 58 % 1024,2 hPa 0,0 l/m 0,0 km/h (0 Bft) NO 45 0 min 9,9 C 17,1 C 0,0 km/h (0 Bft)
28.06.2019 21:40 19,3 C 19,7 C 18,3 C 18,5 C 16,9 C 0,0 C 55 % 59 % 1024,2 hPa 0,0 l/m 0,0 km/h (0 Bft) NO 45 0 min 10,0 C 16,9 C 0,0 km/h (0 Bft)
28.06.2019 21:45 18,8 C 19,7 C 18,1 C 18,0 C 16,5 C 0,0 C 57 % 59 % 1024,5 hPa 0,0 l/m 0,0 km/h (0 Bft) NO 45 0 min 10,1 C 16,5 C 0,0 km/h (0 Bft)
28.06.2019 21:50 18,7 C 19,7 C 17,9 C 17,9 C 16,3 C 0,0 C 57 % 59 % 1024,5 hPa 0,0 l/m 0,0 km/h (0 Bft) NO 45 0 min 10,0 C 16,3 C 0,0 km/h (0 Bft)
28.06.2019 21:55 18,3 C 19,7 C 17,6 C 17,5 C 16,0 C 0,0 C 58 % 60 % 1024,5 hPa 0,0 l/m 0,0 km/h (0 Bft) NO 45 0 min 9,9 C 16,0 C 0,0 km/h (0 Bft)
28.06.2019 22:00 18,0 C 19,7 C 17,4 C 17,3 C 15,8 C 0,0 C 59 % 61 % 1024,5 hPa 0,0 l/m 0,0 km/h (0 Bft) NO 45 0 min 9,9 C 15,8 C 0,0 km/h (0 Bft)
28.06.2019 22:05 17,9 C 19,7 C 17,2 C 17,1 C 15,5 C 0,0 C 59 % 61 % 1024,4 hPa 0,0 l/m 0,0 km/h (0 Bft) NO 45 0 min 9,8 C 15,5 C 0,0 km/h (0 Bft)
28.06.2019 22:11 17,6 C 19,8 C 17,1 C 16,8 C 15,3 C 0,0 C 60 % 62 % 1024,4 hPa 0,0 l/m 0,0 km/h (0 Bft) N 0 0 min 9,7 C 15,3 C 0,0 km/h (0 Bft)
28.06.2019 22:24 16,9 C 19,7 C 16,4 C 16,0 C 14,3 C 0,0 C 64 % 65 % 1024,4 hPa 0,0 l/m 0,0 km/h (0 Bft) NO 45 0 min 10,0 C 14,3 C 0,0 km/h (0 Bft)
28.06.2019 22:25 16,9 C 19,7 C 16,4 C 16,0 C 14,3 C 0,0 C 64 % 65 % 1024,4 hPa 0,0 l/m 0,0 km/h (0 Bft) NO 45 0 min 10,0 C 14,3 C 0,0 km/h (0 Bft)
28.06.2019 22:35 16,7 C 19,7 C 16,1 C 15,8 C 13,9 C 0,0 C 64 % 67 % 1024,4 hPa 0,0 l/m 0,0 km/h (0 Bft) NO 45 0 min 9,9 C 13,9 C 0,0 km/h (0 Bft)
28.06.2019 22:40 16,5 C 19,7 C 16,0 C 15,6 C 13,7 C 0,0 C 65 % 67 % 1024,4 hPa 0,0 l/m 0,0 km/h (0 Bft) NO 45 0 min 9,9 C 13,7 C 0,0 km/h (0 Bft)
28.06.2019 22:45 16,3 C 19,7 C 15,8 C 15,4 C 13,5 C 0,0 C 65 % 68 % 1024,4 hPa 0,0 l/m 0,0 km/h (0 Bft) NO 45 0 min 9,7 C 13,5 C 0,0 km/h (0 Bft)
28.06.2019 22:50 16,0 C 19,7 C 15,7 C 15,1 C 13,4 C 0,0 C 67 % 68 % 1024,4 hPa 0,0 l/m 0,0 km/h (0 Bft) NO 45 0 min 9,9 C 13,4 C 0,0 km/h (0 Bft)
28.06.2019 22:55 15,8 C 19,7 C 15,5 C 14,9 C 13,2 C 0,0 C 67 % 68 % 1024,4 hPa 0,0 l/m 0,0 km/h (0 Bft) NO 45 0 min 9,7 C 13,2 C 0,0 km/h (0 Bft)
28.06.2019 23:00 15,6 C 19,7 C 15,5 C 14,7 C 12,9 C 0,0 C 67 % 68 % 1024,4 hPa 0,0 l/m 0,0 km/h (0 Bft) NO 45 0 min 9,5 C 12,9 C 0,0 km/h (0 Bft)
28.06.2019 23:05 15,5 C 19,7 C 15,2 C 14,6 C 12,7 C 0,0 C 68 % 69 % 1024,4 hPa 0,0 l/m 0,0 km/h (0 Bft) NO 45 0 min 9,6 C 12,7 C 0,0 km/h (0 Bft)
28.06.2019 23:10 15,2 C 19,6 C 15,1 C 14,3 C 12,6 C 0,0 C 69 % 69 % 1024,4 hPa 0,0 l/m 0,0 km/h (0 Bft) NO 45 0 min 9,6 C 12,6 C 0,0 km/h (0 Bft)
28.06.2019 23:15 15,1 C 19,6 C 14,9 C 14,2 C 12,4 C 0,0 C 69 % 69 % 1024,4 hPa 0,0 l/m 0,0 km/h (0 Bft) NO 45 0 min 9,5 C 12,4 C 0,0 km/h (0 Bft)
28.06.2019 23:20 14,9 C 19,6 C 14,7 C 14,0 C 12,3 C 0,0 C 69 % 70 % 1024,4 hPa 0,0 l/m 0,0 km/h (0 Bft) NO 45 0 min 9,3 C 12,3 C 0,0 km/h (0 Bft)
28.06.2019 23:25 14,8 C 19,6 C 14,6 C 13,9 C 12,2 C 0,0 C 70 % 71 % 1024,6 hPa 0,0 l/m 0,0 km/h (0 Bft) NO 45 0 min 9,4 C 12,2 C 0,0 km/h (0 Bft)
28.06.2019 23:30 14,7 C 19,6 C 14,5 C 13,8 C 12,1 C 0,0 C 71 % 72 % 1024,6 hPa 0,0 l/m 0,0 km/h (0 Bft) NO 45 0 min 9,5 C 12,1 C 0,0 km/h (0 Bft)
28.06.2019 23:35 14,4 C 19,6 C 14,3 C 13,6 C 11,9 C 0,0 C 71 % 72 % 1024,6 hPa 0,0 l/m 0,0 km/h (0 Bft) NO 45 0 min 9,2 C 11,9 C 0,0 km/h (0 Bft)
28.06.2019 23:40 14,3 C 19,6 C 14,2 C 13,5 C 11,8 C 0,0 C 72 % 72 % 1024,6 hPa 0,0 l/m 0,0 km/h (0 Bft) NO 45 0 min 9,3 C 11,8 C 0,0 km/h (0 Bft)
28.06.2019 23:45 14,1 C 19,5 C 14,0 C 13,3 C 11,6 C 0,0 C 72 % 72 % 1024,6 hPa 0,0 l/m 0,0 km/h (0 Bft) NO 45 0 min 9,1 C 11,6 C 0,0 km/h (0 Bft)
28.06.2019 23:50 14,0 C 19,5 C 13,8 C 13,2 C 11,5 C 0,0 C 72 % 73 % 1024,6 hPa 0,0 l/m 0,0 km/h (0 Bft) NO 45 0 min 9,0 C 11,5 C 0,0 km/h (0 Bft)
28.06.2019 23:55 13,9 C 19,5 C 13,8 C 13,0 C 11,3 C 0,0 C 73 % 74 % 1024,6 hPa 0,0 l/m 0,0 km/h (0 Bft) NO 45 0 min 9,1 C 11,3 C 0,0 km/h (0 Bft)
_ Min-Zeit 05:30 14:05 05:25 05:15 23:55 00:00 18:05 17:10 20:05 - 02:35 - - - 23:50 23:55 00:55
Minimum _ 13,0 C 19,0 C 13,5 C 12,6 C 11,3 C 0,0 C 42 % 39 % 1023,8 hPa - 0,0 km/h (0 Bft) - - - 9,0 C 11,3 C 0,0 km/h (0 Bft)
_ Max-Zeit 17:10 00:00 17:10 17:20 17:20 11:35 05:35 05:15 09:05 00:00 15:10 - - 16:26 14:24 17:20 07:25
Maximum _ 24,1 C 20,8 C 24,6 C 31,4 C 31,4 C 9,4 C 80 % 78 % 1026,4 hPa 0,0 l/m 3,5 km/h
O-NO (1 Bft)
- - 15 min 12,5 C 31,4 C 13,0 km/h
NO (3 Bft)
Durchschnitt _ 18,3 C 19,7 C 18,5 C 21,2 C 20,8 C 3,1 C 62 % 60 % 1025,1 hPa #0,0 l/m 1,0 km/h (0 Bft) S - #12:00 h 10,5 C 20,8 C 1,6 km/h (1 Bft)
2019 www.wetterstation-wechselburg.de